TimeEDT,TemperatureF,Dew PointF,Humidity,Sea Level PressureIn,VisibilityMPH,Wind Direction,Wind SpeedMPH,Gust SpeedMPH,PrecipitationIn,Events,Conditions,WindDirDegrees,DateUTC
12:54 AM,50.0,39.9,68,30.22,10.0,SSW,3.5,-,N/A,,Overcast,200,2013-05-18 04:54:00
1:54 AM,50.0,41.0,71,30.21,10.0,East,4.6,-,N/A,,Overcast,90,2013-05-18 05:54:00
2:54 AM,48.9,39.0,69,30.21,10.0,Calm,Calm,-,N/A,,Scattered Clouds,0,2013-05-18 06:54:00
3:54 AM,46.9,39.9,77,30.21,10.0,Calm,Calm,-,N/A,,Clear,0,2013-05-18 07:54:00
4:54 AM,43.0,39.0,86,30.23,10.0,Calm,Calm,-,N/A,,Clear,0,2013-05-18 08:54:00
5:54 AM,43.0,37.9,82,30.22,10.0,Calm,Calm,-,N/A,,Clear,0,2013-05-18 09:54:00
6:54 AM,46.9,37.9,71,30.23,10.0,Calm,Calm,-,N/A,,Clear,0,2013-05-18 10:54:00
7:54 AM,48.9,39.0,69,30.24,10.0,SE,3.5,-,N/A,,Mostly Cloudy,130,2013-05-18 11:54:00
8:54 AM,50.0,39.9,68,30.25,10.0,ESE,5.8,-,N/A,,Overcast,120,2013-05-18 12:54:00
9:54 AM,52.0,39.9,63,30.26,10.0,East,5.8,-,N/A,,Overcast,100,2013-05-18 13:54:00
10:54 AM,54.0,39.9,59,30.25,10.0,East,6.9,-,N/A,,Overcast,100,2013-05-18 14:54:00
11:54 AM,59.0,39.9,49,30.23,10.0,ESE,5.8,-,N/A,,Overcast,110,2013-05-18 15:54:00
12:54 PM,57.9,39.0,49,30.22,10.0,East,10.4,-,N/A,,Overcast,90,2013-05-18 16:54:00
1:54 PM,57.0,39.0,51,30.21,10.0,ESE,8.1,-,N/A,,Overcast,110,2013-05-18 17:54:00
2:54 PM,54.0,39.0,57,30.20,10.0,ESE,4.6,-,N/A,,Overcast,110,2013-05-18 18:54:00
3:54 PM,53.1,39.9,61,30.19,10.0,East,4.6,-,N/A,,Overcast,100,2013-05-18 19:54:00
4:54 PM,54.0,39.9,59,30.17,10.0,ESE,5.8,-,N/A,,Overcast,120,2013-05-18 20:54:00
5:54 PM,55.0,42.1,62,30.16,10.0,SE,6.9,-,N/A,,Overcast,130,2013-05-18 21:54:00
6:54 PM,55.0,42.1,62,30.14,10.0,East,8.1,-,N/A,,Scattered Clouds,100,2013-05-18 22:54:00
7:54 PM,55.0,41.0,59,30.14,10.0,SE,5.8,-,N/A,,Overcast,130,2013-05-18 23:54:00
8:54 PM,52.0,39.0,61,30.13,10.0,SE,5.8,-,N/A,,Overcast,130,2013-05-19 00:54:00
9:54 PM,52.0,41.0,66,30.12,10.0,Calm,Calm,-,N/A,,Mostly Cloudy,0,2013-05-19 01:54:00
10:54 PM,51.1,41.0,68,30.10,10.0,SE,4.6,-,N/A,,Partly Cloudy,130,2013-05-19 02:54:00
11:54 PM,52.0,41.0,66,30.09,10.0,SE,5.8,-,N/A,,Partly Cloudy,140,2013-05-19 03:54:00